Temperature
12 13 14 14 12 10 12 12 12 13 14 15 16 16 15 15 15 16 15 16 16 16 16 16 16 16 16 16 16 16 17 17 17 17 17 17 17 16 16 16 16 16 16 16 16 15 15 15 15
12 13 14 14 10 11 12 12 13 14 15 16 16 15 14 14 14 15 15 15 16 16 16 16 16 16 16 16 16 16 16 16 17 17 17 17 16 16 16 16 16 16 16 16 16 15 15 15 15
12 13 13 10 10 11 13 12 12 14 15 15 15 14 14 14 14 14 15 15 15 16 16 16 16 16 16 16 16 16 16 16 16 16 16 16 16 16 16 16 16 16 16 15 15 15 15 15 15
12 13 12 10 11 11 12 13 12 13 15 15 14 13 13 14 14 14 15 15 15 15 16 16 16 16 16 16 16 16 16 16 16 16 16 16 16 16 16 16 16 16 15 15 15 15 15 15 15
12 13 9 10 11 11 11 12 13 13 13 14 13 12 13 13 14 14 15 15 15 15 15 15 16 16 16 16 16 16 16 16 16 16 16 16 16 16 16 16 16 16 15 15 15 15 15 15 15
12 10 9 9 11 11 12 12 13 13 13 13 13 12 12 13 14 14 14 15 15 15 15 15 15 15 15 15 15 15 16 16 16 16 16 16 15 15 15 15 15 15 15 15 15 15 15 15 15
11 8 9 9 10 11 12 12 12 12 12 13 13 12 12 13 14 14 14 15 15 15 15 15 15 15 15 15 15 15 15 15 15 15 15 15 15 15 15 15 15 15 15 15 15 15 15 15 15
11 8 9 9 10 11 11 12 12 12 12 13 13 12 12 13 13 14 14 14 14 14 14 15 15 15 15 15 15 15 15 15 15 15 15 15 15 15 15 15 15 15 15 15 15 15 15 15 14
11 8 8 9 10 11 11 11 12 12 12 12 12 12 12 13 13 13 14 14 14 14 14 14 14 14 15 15 15 15 15 15 15 15 15 15 15 15 15 15 15 15 15 15 15 15 15 14 14
10 8 9 10 10 10 10 11 11 12 11 11 12 12 12 13 13 13 13 14 14 14 14 14 14 14 14 14 14 15 15 15 15 15 15 15 15 15 15 15 15 15 15 15 15 15 15 14 14
9 8 9 9 10 11 10 11 11 11 10 11 11 12 12 12 13 13 13 13 13 13 14 14 14 14 14 14 14 14 14 15 15 15 15 15 15 15 15 15 15 15 14 14 14 14 14 14 14
8 8 9 10 10 11 10 10 10 10 11 11 12 12 12 12 12 12 12 12 13 13 13 13 13 13 14 14 14 14 14 14 14 14 15 14 14 14 14 14 14 14 14 14 14 14 14 14 14
8 8 9 10 10 10 10 10 10 10 11 11 11 11 12 12 12 12 12 12 12 12 12 13 13 13 13 13 13 14 14 14 14 14 14 14 14 14 14 14 14 14 14 14 14 14 14 14 14
8 8 9 9 10 10 9 9 9 10 11 11 11 11 11 11 11 11 11 12 12 12 12 12 12 12 13 13 13 13 13 13 13 13 14 14 14 14 14 14 14 14 14 14 14 14 14 14 14
9 8 8 9 9 9 10 9 8 10 10 10 10 10 11 11 11 11 11 11 11 11 11 12 12 12 12 12 13 13 13 13 13 13 13 13 13 13 13 13 13 14 14 14 14 14 14 14 14
8 7 8 8 8 9 9 9 9 10 10 10 10 10 10 10 10 10 10 11 11 11 11 11 11 12 12 12 12 12 12 12 12 13 13 13 13 13 13 13 13 13 13 13 13 13 13 13 13
6 7 8 8 8 8 8 8 8 9 9 9 9 10 10 10 10 10 10 10 10 10 11 11 11 11 11 11 11 11 11 12 12 12 12 12 12 12 12 12 12 13 13 13 13 13 13 13 13
7 7 7 7 8 8 7 7 7 9 9 9 9 9 9 9 10 10 10 10 10 10 10 10 10 10 11 11 11 11 11 11 11 11 11 11 12 12 12 12 12 12 12 12 12 13 13 13 13
7 7 7 7 7 7 7 7 7 8 8 8 8 9 9 9 9 9 9 9 9 9 10 10 10 10 10 10 10 11 11 11 11 11 11 11 11 11 11 11 12 12 12 12 12 12 12 12 12
7 6 6 7 7 7 6 6 7 7 7 8 8 8 8 8 9 9 9 9 9 9 9 9 9 9 9 9 10 10 10 10 10 10 10 10 10 11 11 11 11 11 11 11 11 11 12 12 11
6 6 7 7 7 7 6 7 7 7 7 7 8 8 8 8 8 9 9 8 8 8 8 8 8 8 9 9 9 9 9 10 10 10 10 10 10 10 10 10 11 11 11 11 11 11 11 11 11
6 7 7 7 6 5 6 6 6 6 6 6 7 7 8 8 8 8 8 8 8 8 8 8 8 8 8 8 8 9 9 9 9 9 9 10 10 10 10 10 10 10 10 10 10 10 11 10 10
6 7 6 6 6 5 5 5 5 6 6 6 6 7 8 8 8 8 8 8 8 8 8 8 8 8 8 8 8 8 8 8 8 8 9 9 9 9 9 10 10 10 10 10 10 10 10 10 10
6 6 6 5 5 5 5 5 5 5 6 6 6 7 8 8 8 8 7 7 7 7 7 7 7 7 8 8 8 8 8 8 8 8 8 8 9 9 9 9 9 9 9 9 9 9 9 9 9
6 5 5 5 4 5 5 4 5 6 6 6 6 7 7 7 7 7 7 7 7 7 7 7 7 7 7 7 7 7 7 7 7 7 7 8 8 8 8 8 8 9 8 9 9 9 9 9 9
6 6 5 6 5 4 4 4 5 6 6 7 7 7 7 7 7 7 7 7 6 6 6 6 7 7 7 7 7 7 7 7 7 7 7 7 7 7 8 8 8 8 8 8 8 8 8 8 8
6 5 5 4 4 4 4 4 5 6 6 6 6 6 7 7 7 7 7 6 6 6 6 6 6 6 6 6 6 6 6 6 6 6 6 6 7 7 7 7 7 7 7 8 8 7 8 8 8
6 5 4 4 5 5 5 4 5 6 6 6 5 6 7 7 7 7 7 6 6 6 6 6 6 6 6 6 6 6 6 6 6 6 6 6 6 6 6 6 7 7 7 7 7 7 7 7 7
5 5 5 4 4 4 5 6 6 6 6 5 5 7 7 7 7 7 7 6 6 6 6 6 6 6 6 6 6 6 6 6 6 6 6 6 6 6 6 6 6 6 6 6 6 6 6 6 6
5 5 4 5 4 3 3 5 7 6 5 5 6 7 8 7 7 7 7 6 6 6 6 6 6 5 5 6 6 5 5 5 5 5 5 5 5 5 5 6 6 6 6 6 6 6 6 6 6
Wind_Speed
2 3 3 4 5 3 4 4 3 2 2 1 2 5 7 5 4 4 1 3 2 1 1 4 8 9 10 10 10 10 10 10 10 10 11 11 11 11 11 10 10 9 9 9 9 10 11 11 11
1 2 4 4 5 3 5 4 4 3 3 2 4 5 6 4 2 2 3 4 3 3 3 4 6 7 8 9 9 10 10 9 9 9 9 10 10 10 10 10 9 9 9 9 9 9 10 10 10
2 3 4 4 4 6 5 4 4 1 0 3 4 5 4 3 2 2 4 3 3 4 5 4 5 6 6 7 7 8 8 8 8 9 8 8 9 9 9 9 8 8 9 9 9 8 9 9 9
3 4 4 4 5 4 3 1 2 1 2 4 5 5 3 3 2 2 4 3 5 5 6 5 5 5 5 5 5 5 6 7 7 8 8 8 8 9 9 9 8 8 9 8 8 8 8 8 8
3 4 4 2 4 2 2 2 0 2 2 3 4 5 3 5 4 4 4 5 5 4 6 6 5 5 4 4 4 4 4 4 6 7 7 7 7 8 9 9 8 8 9 8 8 8 8 7 8
3 4 4 5 4 1 1 2 1 3 3 3 4 4 2 4 5 4 5 4 4 4 5 6 5 5 4 3 3 3 3 3 4 5 6 6 7 7 9 9 9 9 9 8 8 8 8 8 8
4 4 5 6 4 2 1 2 3 3 4 2 3 4 1 3 4 4 5 5 5 6 6 6 6 4 3 3 2 1 1 1 2 3 4 5 5 6 7 9 9 9 9 9 9 8 8 7 8
4 5 4 4 5 3 1 2 2 3 2 1 3 6 3 1 2 4 6 7 7 6 6 6 6 6 5 3 2 1 1 1 1 2 3 4 5 6 7 8 9 9 9 9 9 9 8 8 7
3 4 4 4 5 3 1 2 3 2 4 4 3 2 2 2 3 5 6 6 7 7 6 6 6 6 5 4 3 2 2 2 2 2 3 3 4 6 7 8 9 9 10 10 10 10 9 8 7
4 3 3 1 2 3 1 2 2 4 5 4 4 4 4 4 5 6 6 5 6 6 6 5 5 5 5 5 4 4 3 3 2 2 2 3 4 5 6 8 9 10 10 10 10 10 9 8 6
4 4 3 1 1 2 2 2 2 4 3 2 3 2 2 4 5 4 3 3 3 4 5 5 5 5 5 4 4 3 3 3 3 3 3 3 3 4 4 5 6 8 9 8 8 7 7 7 6
4 2 2 1 1 2 2 2 3 2 2 2 2 2 1 3 3 2 2 3 3 4 5 5 5 5 5 4 3 3 2 2 3 4 4 3 2 2 3 4 5 6 6 6 6 5 6 7 7
4 2 2 2 4 3 4 3 2 1 1 2 2 3 2 1 1 2 2 2 3 4 5 5 4 4 5 4 3 3 3 3 4 4 4 4 3 3 4 4 5 5 6 6 6 6 6 5 6
2 3 2 3 4 3 4 2 2 1 1 3 3 2 1 1 1 2 3 3 4 4 5 5 5 4 4 3 3 3 4 4 4 4 5 6 5 4 4 4 5 5 6 7 7 6 6 5 5
2 4 5 5 3 2 3 4 0 2 1 2 2 1 1 2 2 2 2 3 4 5 5 5 5 4 4 4 4 3 4 4 3 4 5 6 6 5 4 4 5 6 7 7 6 6 5 5 5
4 4 3 4 3 3 4 2 2 0 2 0 1 2 2 3 3 3 3 4 4 4 5 5 5 5 5 5 5 4 4 4 4 4 5 5 6 6 4 4 5 6 6 5 5 5 5 5 5
5 3 1 2 3 3 2 4 4 2 0 2 3 3 3 3 4 4 4 4 4 4 5 5 5 5 5 5 4 4 4 3 4 4 3 5 5 6 4 4 5 5 4 5 6 5 5 5 5
2 2 1 1 3 2 1 5 6 3 3 4 4 3 3 3 4 4 4 4 5 5 4 5 5 5 5 4 3 3 3 3 3 3 3 4 4 5 4 4 4 4 4 5 5 5 5 4 5
4 3 1 2 2 1 3 6 8 5 4 5 4 4 4 4 4 4 4 5 5 5 5 5 5 5 4 3 3 3 3 3 3 2 3 4 4 4 3 3 4 4 5 5 5 5 5 5 3
3 2 1 2 2 0 4 7 7 5 5 5 5 5 4 4 4 5 5 5 5 5 6 5 5 5 4 3 3 3 3 3 2 2 3 3 3 3 3 3 3 4 4 5 5 5 4 4 4
3 2 1 1 3 3 3 7 5 3 2 3 3 4 3 4 4 5 5 5 5 6 6 6 6 5 4 4 3 3 2 2 2 2 2 3 3 3 2 2 3 3 4 4 5 5 5 5 4
1 1 1 1 3 3 2 4 7 4 5 4 4 4 4 4 4 4 5 6 5 5 6 6 5 5 4 3 2 2 3 3 3 2 3 3 3 3 3 2 2 3 3 3 4 4 4 5 4
1 1 2 2 2 2 1 2 8 3 5 6 5 5 5 5 5 5 5 5 5 5 5 5 5 5 4 3 2 2 3 3 3 2 3 3 3 2 2 2 1 2 2 3 3 3 4 4 4
1 4 4 4 3 2 3 3 7 5 6 5 4 5 5 5 6 6 5 5 5 5 5 5 5 5 5 4 3 2 3 3 3 3 3 2 2 2 3 2 1 1 2 2 2 2 3 3 3
5 5 4 5 4 5 2 3 9 7 6 6 6 6 5 5 5 5 5 5 5 5 5 5 5 6 5 4 3 3 3 3 3 3 2 2 2 2 3 2 2 2 1 2 1 1 2 2 3
2 4 4 2 3 5 3 6 8 6 5 5 5 5 5 6 5 6 5 5 5 5 5 5 5 6 5 4 4 3 2 2 2 2 2 2 2 2 2 2 2 2 2 1 0 1 1 1 2
2 2 3 3 1 4 6 7 9 4 5 4 5 4 6 6 6 6 5 4 5 5 5 5 5 5 5 4 4 3 2 1 1 1 1 1 2 2 2 2 2 2 1 1 0 0 0 1 1
2 4 4 2 1 5 7 6 5 6 6 6 5 6 7 6 5 6 5 4 4 4 4 4 4 4 4 4 3 2 2 2 1 1 1 1 1 1 2 2 2 2 1 1 1 0 1 1 1
3 2 3 2 3 2 5 7 6 7 6 7 8 7 7 7 7 6 5 4 3 3 3 3 3 3 3 3 3 3 2 2 1 1 1 1 1 1 1 1 1 1 1 1 1 1 1 1 1
5 5 6 3 3 4 3 8 6 6 7 7 8 7 7 7 6 6 5 4 3 3 3 3 3 3 3 3 2 2 2 2 2 2 2 1 1 1 1 1 1 1 1 1 1 1 1 1 0
Wind_Direction
18 55 74 64 71 78 216 231 220 196 204 212 121 118 126 122 136 149 284 342 355 45 110 144 148 149 147 147 146 142 141 142 142 142 143 143 143 144 144 143 141 137 134 132 130 130 128 123 121
71 81 66 73 114 165 243 228 209 207 188 127 80 85 86 79 38 54 349 339 15 56 67 110 134 145 148 148 150 153 151 151 149 149 151 151 151 151 151 150 150 145 140 138 136 131 132 130 129
110 62 97 101 146 181 206 212 203 247 47 103 87 66 92 80 7 4 333 334 43 52 54 83 113 132 139 145 154 158 162 163 161 158 159 163 162 160 156 155 156 154 148 144 143 139 138 139 139
98 64 67 108 182 207 216 222 199 151 59 58 98 77 66 21 337 331 341 37 61 46 46 70 93 114 130 143 150 160 166 172 174 171 172 173 175 170 168 163 160 157 154 153 153 151 152 153 151
65 96 99 140 197 233 259 292 310 113 85 59 91 94 56 354 357 19 30 53 60 39 32 47 74 87 112 130 153 163 168 175 182 184 186 186 184 181 178 172 170 167 164 166 166 164 165 165 162
78 90 125 173 189 234 306 324 58 82 80 71 86 94 88 351 18 14 31 47 50 45 30 31 50 63 76 99 119 153 172 181 180 186 192 195 194 191 187 181 180 179 177 180 181 179 177 174 172
118 114 147 160 156 151 347 6 78 90 80 70 110 100 99 358 6 19 33 39 40 37 33 22 23 30 42 58 73 86 166 205 203 205 206 207 199 195 195 192 190 190 190 192 194 193 190 188 186
120 108 113 147 146 162 334 25 47 82 109 29 89 122 152 274 4 33 41 36 31 29 26 18 16 16 11 3 1 343 322 290 249 237 224 220 211 207 204 200 200 199 200 200 200 201 201 196 192
76 84 143 171 159 157 15 60 21 41 77 41 41 99 124 75 45 45 38 27 23 19 12 12 11 9 2 350 332 324 301 283 270 252 234 228 223 216 212 209 207 206 205 205 207 207 207 201 198
74 121 163 175 164 143 79 77 44 64 55 51 45 38 46 53 57 54 41 24 12 359 355 3 4 3 359 346 340 334 317 303 279 265 244 237 230 224 220 215 214 212 210 210 212 213 209 202 198
84 131 138 44 51 112 88 54 34 104 78 159 148 120 40 50 46 48 33 14 353 340 349 352 352 357 357 349 342 338 326 315 294 267 244 238 232 228 223 215 219 217 211 207 213 216 206 197 197
91 69 99 66 38 67 87 78 48 72 162 166 151 142 85 53 35 29 2 338 335 346 342 343 347 348 347 345 335 328 325 316 299 277 252 227 225 225 221 216 216 213 211 206 204 202 204 206 209
81 82 41 46 59 71 76 68 83 16 334 57 79 82 86 57 2 341 326 327 340 341 332 329 334 338 339 340 330 328 313 301 288 274 257 233 222 226 228 223 219 215 213 208 204 204 204 211 216
107 91 51 28 52 44 70 35 68 290 32 74 71 61 38 22 329 341 349 346 339 327 323 323 327 324 331 325 314 312 304 293 288 274 260 243 228 224 225 229 225 220 216 214 210 210 212 216 218
79 76 42 24 38 30 58 12 249 251 74 67 40 19 355 334 333 329 321 323 321 317 320 322 319 325 324 316 309 315 309 299 286 275 268 253 238 227 222 227 229 226 222 217 215 214 215 221 221
48 62 46 347 21 14 74 278 271 351 93 12 303 317 328 323 327 326 325 318 319 320 321 321 327 330 324 317 312 310 307 300 291 281 273 261 248 235 223 226 232 231 221 214 215 214 217 223 226
43 79 93 334 12 34 81 244 265 318 104 265 276 286 306 318 330 329 326 322 323 322 319 322 327 326 321 317 312 310 307 302 301 294 284 270 258 245 232 232 235 226 220 222 223 217 212 221 227
116 97 83 289 330 36 283 262 280 284 243 251 265 280 294 305 307 316 330 332 331 328 325 325 326 328 325 320 318 316 308 302 312 304 299 284 273 258 240 238 236 223 222 225 224 223 215 218 222
123 108 84 290 314 339 267 273 279 275 252 253 261 266 278 288 293 319 334 336 337 338 337 331 330 328 334 334 330 322 312 303 298 301 307 295 285 272 251 247 233 221 224 227 221 221 221 222 201
88 91 25 341 357 352 297 282 273 251 239 232 235 247 261 288 314 324 335 344 341 331 330 326 322 320 322 319 305 287 286 286 283 300 319 314 304 291 269 240 239 234 229 227 224 218 223 220 194
45 135 173 289 349 19 338 307 287 275 261 248 234 235 253 262 287 307 323 327 332 331 323 318 312 312 314 316 317 318 309 306 312 315 312 316 320 305 289 265 244 237 231 232 226 216 219 227 211
42 284 155 68 41 330 30 302 287 279 289 263 252 249 258 273 283 294 306 316 322 317 318 315 313 314 316 315 317 316 306 292 288 293 297 308 320 313 302 290 263 243 238 243 240 225 220 216 218
184 15 85 86 105 338 345 228 283 299 275 265 254 252 261 268 272 283 293 300 309 315 320 319 321 320 319 311 289 283 285 284 296 306 304 307 313 315 314 306 287 263 252 247 241 232 218 217 219
98 53 58 57 68 311 242 198 280 249 234 260 256 252 259 267 274 282 291 301 308 319 324 324 325 324 323 315 300 267 272 285 296 301 302 308 311 321 332 338 334 311 280 263 250 227 213 210 215
51 64 29 3 359 265 251 221 253 252 235 233 251 258 260 262 268 277 287 298 306 316 322 324 326 325 328 323 314 293 274 272 269 271 272 287 303 318 322 335 340 336 319 304 273 212 212 203 197
58 108 136 211 265 292 292 244 255 255 258 254 254 257 262 266 265 267 271 280 290 300 313 320 321 319 324 325 319 311 301 295 290 288 280 280 290 298 312 325 328 324 325 323 302 208 221 194 193
113 114 147 138 272 286 278 280 295 261 266 265 267 268 265 264 263 263 266 271 279 293 300 302 308 313 319 320 320 328 331 324 312 312 301 292 300 306 323 321 321 318 325 333 261 228 221 189 201
123 140 105 122 282 292 295 276 259 276 264 262 263 264 267 267 267 267 263 263 272 283 291 302 306 304 315 323 323 331 337 338 327 317 300 298 299 307 321 319 322 327 342 2 81 187 187 171 221
142 138 137 144 176 205 291 280 227 232 246 249 255 255 257 262 262 261 258 257 264 281 288 298 307 314 323 323 328 337 332 336 339 325 314 307 311 316 304 312 328 348 359 19 65 62 80 87 60
185 184 162 174 227 203 235 272 261 237 253 249 259 262 258 257 257 257 254 257 264 276 285 288 291 300 305 313 324 328 332 342 346 331 319 321 325 324 318 313 345 4 3 19 71 55 61 95 89
Height
1490 1492 1496 1500 1505 1515 1515 1510 1506 1504 1503 1502 1502 1503 1506 1510 1514 1520 1517 1515 1516 1517 1519 1520 1522 1524 1525 1526 1528 1529 1530 1531 1532 1533 1534 1535 1536 1536 1537 1538 1538 1539 1539 1540 1540 1541 1541 1541 1542
1490 1493 1497 1499 1509 1518 1514 1506 1504 1502 1501 1501 1502 1504 1506 1509 1512 1514 1514 1515 1516 1518 1519 1520 1522 1524 1525 1527 1528 1529 1530 1531 1533 1533 1534 1535 1536 1537 1538 1538 1539 1539 1540 1540 1541 1541 1541 1542 1543
1490 1493 1496 1500 1509 1512 1507 1502 1501 1500 1500 1501 1503 1505 1507 1510 1512 1513 1515 1515 1517 1518 1519 1521 1522 1524 1525 1526 1528 1529 1530 1531 1532 1533 1534 1535 1536 1537 1538 1538 1539 1539 1540 1541 1541 1541 1542 1542 1543
1490 1494 1496 1503 1505 1505 1502 1499 1499 1499 1500 1501 1503 1507 1509 1512 1513 1514 1515 1516 1517 1518 1519 1521 1522 1523 1525 1526 1527 1528 1530 1531 1532 1533 1534 1535 1536 1537 1537 1538 1539 1539 1540 1541 1541 1542 1542 1543 1543
1490 1492 1499 1505 1504 1502 1500 1499 1498 1499 1500 1502 1503 1507 1510 1512 1513 1514 1515 1516 1517 1518 1520 1521 1522 1523 1524 1525 1527 1528 1529 1530 1531 1532 1533 1534 1535 1536 1537 1538 1538 1539 1540 1540 1541 1542 1542 1543 1543
1489 1491 1502 1506 1502 1500 1499 1498 1498 1499 1501 1503 1504 1507 1511 1513 1514 1515 1516 1517 1517 1518 1520 1520 1521 1522 1523 1524 1526 1527 1528 1529 1530 1531 1532 1533 1534 1535 1536 1537 1537 1538 1539 1540 1540 1541 1542 1542 1543
1489 1494 1500 1502 1502 1501 1500 1499 1500 1500 1502 1504 1505 1508 1511 1513 1514 1515 1516 1517 1517 1518 1519 1520 1521 1521 1522 1523 1524 1525 1526 1527 1528 1530 1531 1532 1533 1534 1534 1535 1536 1537 1538 1539 1540 1540 1541 1542 1543
1488 1493 1499 1502 1501 1501 1500 1499 1501 1501 1503 1505 1506 1508 1511 1513 1514 1515 1516 1516 1517 1518 1518 1519 1519 1520 1521 1522 1523 1524 1525 1526 1526 1528 1529 1530 1531 1532 1533 1534 1535 1536 1537 1538 1538 1539 1540 1541 1542
1488 1497 1501 1501 1500 1500 1500 1500 1502 1503 1503 1505 1506 1508 1511 1512 1514 1514 1515 1516 1516 1517 1517 1517 1518 1518 1519 1520 1521 1522 1522 1523 1524 1525 1526 1527 1528 1530 1531 1532 1533 1534 1535 1536 1537 1538 1539 1540 1540
1489 1499 1499 1499 1498 1499 1500 1501 1502 1503 1505 1506 1508 1509 1511 1512 1513 1514 1514 1514 1515 1515 1516 1516 1516 1516 1517 1517 1518 1519 1520 1521 1522 1523 1524 1524 1526 1527 1528 1529 1530 1532 1533 1534 1535 1536 1537 1538 1538
1491 1497 1498 1498 1498 1499 1500 1501 1503 1504 1507 1507 1508 1509 1511 1512 1513 1513 1513 1513 1514 1514 1514 1514 1514 1514 1515 1515 1515 1516 1517 1517 1518 1520 1520 1521 1522 1523 1525 1526 1527 1529 1530 1531 1532 1533 1534 1535 1536
1493 1497 1497 1498 1498 1499 1500 1502 1504 1505 1507 1508 1509 1509 1510 1511 1512 1512 1512 1512 1512 1512 1512 1512 1512 1512 1512 1512 1512 1513 1513 1514 1515 1516 1517 1518 1519 1520 1521 1522 1524 1525 1526 1528 1529 1530 1531 1532 1533
1495 1498 1498 1499 1499 1500 1501 1503 1504 1506 1507 1508 1509 1509 1510 1510 1511 1511 1511 1511 1510 1510 1510 1510 1509 1509 1509 1509 1509 1509 1510 1511 1511 1512 1513 1514 1515 1516 1517 1518 1520 1521 1523 1524 1525 1527 1528 1529 1530
1496 1498 1499 1500 1500 1501 1503 1504 1505 1507 1507 1508 1508 1509 1509 1509 1510 1509 1509 1509 1508 1508 1507 1507 1507 1506 1506 1506 1506 1506 1506 1507 1507 1508 1509 1510 1511 1512 1513 1514 1516 1517 1519 1520 1521 1523 1524 1525 1526
1497 1499 1501 1502 1502 1503 1504 1507 1507 1507 1507 1507 1508 1508 1508 1508 1508 1508 1507 1507 1506 1505 1505 1504 1503 1503 1503 1502 1502 1502 1502 1502 1503 1504 1504 1505 1506 1507 1509 1510 1511 1513 1514 1516 1517 1519 1520 1521 1522
1499 1504 1507 1505 1504 1505 1508 1510 1507 1506 1506 1506 1506 1507 1507 1506 1506 1506 1505 1505 1504 1503 1502 1501 1500 1500 1499 1499 1498 1498 1498 1498 1498 1499 1500 1501 1502 1503 1504 1505 1507 1508 1510 1511 1512 1514 1515 1516 1517
1507 1509 1509 1508 1506 1506 1508 1509 1506 1506 1506 1505 1505 1505 1505 1504 1504 1504 1503 1502 1501 1500 1499 1498 1497 1497 1496 1495 1495 1495 1494 1494 1494 1495 1495 1496 1497 1498 1499 1500 1502 1504 1505 1506 1507 1508 1510 1511 1512
1510 1511 1511 1510 1508 1508 1510 1509 1505 1504 1505 1504 1503 1503 1503 1502 1502 1501 1501 1500 1499 1498 1496 1495 1494 1493 1493 1492 1491 1491 1491 1490 1490 1491 1491 1492 1492 1494 1495 1496 1497 1499 1500 1501 1502 1503 1504 1505 1507
1509 1511 1513 1511 1509 1510 1510 1509 1504 1502 1503 1502 1501 1501 1500 1500 1500 1499 1498 1497 1496 1495 1494 1492 1491 1490 1489 1488 1487 1487 1486 1486 1487 1487 1487 1488 1488 1489 1490 1491 1492 1493 1494 1495 1497 1498 1498 1500 1502
1509 1513 1514 1512 1510 1510 1511 1508 1502 1500 1500 1499 1499 1498 1498 1498 1497 1496 1496 1495 1493 1492 1491 1489 1488 1487 1486 1485 1484 1483 1483 1482 1483 1483 1483 1484 1484 1485 1486 1486 1488 1489 1489 1490 1491 1493 1493 1494 1496
1512 1513 1513 1513 1512 1512 1512 1507 1501 1498 1497 1497 1496 1496 1496 1496 1495 1494 1493 1492 1491 1489 1488 1486 1485 1484 1483 1482 1481 1480 1479 1479 1479 1479 1479 1480 1480 1481 1481 1482 1483 1484 1485 1485 1486 1487 1488 1489 1490
1513 1512 1512 1513 1516 1519 1517 1519 1504 1499 1497 1495 1494 1494 1494 1494 1493 1492 1491 1490 1489 1487 1485 1484 1482 1481 1480 1479 1478 1476 1475 1475 1475 1475 1475 1476 1476 1477 1477 1478 1478 1479 1480 1480 1481 1482 1482 1484 1484
1513 1512 1513 1514 1517 1520 1519 1521 1508 1500 1496 1492 1491 1491 1491 1491 1491 1490 1489 1488 1486 1485 1483 1481 1479 1478 1477 1476 1475 1473 1472 1472 1471 1471 1471 1472 1472 1473 1473 1473 1474 1474 1474 1475 1475 1476 1477 1478 1479
1512 1514 1515 1519 1521 1523 1519 1522 1511 1501 1493 1490 1488 1488 1488 1489 1489 1488 1487 1486 1484 1483 1481 1479 1477 1475 1474 1473 1472 1470 1469 1469 1468 1468 1467 1468 1468 1468 1469 1469 1469 1469 1470 1470 1470 1471 1471 1472 1474
1515 1521 1528 1526 1530 1525 1519 1520 1508 1491 1488 1487 1486 1486 1486 1486 1486 1485 1485 1483 1482 1480 1479 1477 1475 1473 1471 1470 1468 1467 1466 1465 1465 1464 1464 1464 1464 1464 1465 1465 1465 1465 1465 1465 1466 1466 1466 1467 1468
1518 1521 1530 1530 1531 1528 1520 1517 1499 1487 1485 1484 1484 1484 1484 1484 1484 1483 1482 1481 1480 1478 1476 1474 1472 1470 1469 1467 1466 1464 1463 1462 1462 1462 1461 1461 1461 1461 1461 1461 1461 1461 1461 1462 1462 1462 1462 1462 1463
1518 1522 1524 1531 1532 1532 1521 1511 1495 1484 1483 1483 1482 1482 1482 1481 1481 1481 1480 1479 1477 1476 1474 1472 1470 1468 1466 1465 1463 1462 1461 1460 1459 1459 1459 1458 1458 1458 1458 1458 1458 1458 1458 1458 1458 1458 1458 1459 1460
1518 1521 1527 1529 1528 1527 1520 1513 1502 1486 1483 1482 1481 1480 1479 1479 1479 1478 1477 1476 1475 1473 1472 1470 1468 1466 1464 1463 1461 1460 1459 1458 1457 1457 1456 1456 1456 1455 1455 1455 1455 1454 1454 1454 1455 1455 1455 1456 1456
1520 1522 1523 1529 1529 1529 1524 1506 1487 1483 1480 1480 1478 1477 1477 1477 1476 1476 1475 1474 1473 1471 1470 1468 1466 1464 1463 1461 1459 1458 1457 1456 1455 1455 1454 1454 1453 1453 1452 1452 1452 1451 1451 1451 1451 1452 1452 1452 1453
1516 1517 1522 1525 1526 1528 1529 1506 1479 1479 1477 1477 1476 1475 1475 1475 1474 1473 1472 1471 1470 1469 1467 1466 1464 1463 1461 1460 1458 1457 1455 1454 1453 1453 1452 1452 1451 1451 1450 1450 1450 1449 1449 1449 1449 1449 1449 1449 1449